Regional Weather Roundup
Issued by NWS

Home | Current Version | Previous Version | Text Only | Print | Product List | Glossary Off
Versions: 1 2 3 4 5 6 7 8 9 10 11 12 13 14 15 16 17 18 19 20 21 22 23 24 25 26 27 28 29 30 31 32 33 34 35 36 37 38 39 40 41 42 43 44 45 46 47 48 49 50

227
ASUS45 KCYS 222210
RWRWY

WYOMING REGIONAL WEATHER ROUNDUP
NATIONAL WEATHER SERVICE CHEYENNE WY
300 PM MST WED FEB 22 2017

NOTE:  "FAIR" INDICATES FEW OR NO CLOUDS BELOW 12,000 FEET
WITH NO SIGNIFICANT WEATHER AND/OR OBSTRUCTIONS TO VISIBILITY.

WYZ001-222300-
YELLOWSTONE NATIONAL PARK

CITY           SKY/WX    TMP DP  RH WIND       PRES   REMARKS
LK YELLOWSTONE   N/A     23  18  81 CALM      29.81F
W YELLOWSTONE  NOT AVBL

$$
WYZ002>013-054>058-071-098>099-222300-
NORTHERN WYOMING

CITY           SKY/WX    TMP DP  RH WIND       PRES   REMARKS
JACKSON        PTSUNNY   32  16  51 CALM      29.83F
CODY           FAIR      38  24  57 NE10      29.82F WCI  31
GREYBULL       FAIR      45  24  43 NW15      29.80F
WORLAND        FAIR      46  20  35 N7        29.81S
SHERIDAN       CLOUDY    37  30  75 VRB3      29.84S
BUFFALO        LGT SNOW  34  29  82 NW7       29.85R WCI  28
GILLETTE         N/A    N/A N/A N/A MISG      29.82R
HULETT         CLOUDY    37  30  75 N10       29.84R WCI  30
NEWCASTLE      FAIR      46  19  34 NW21      29.80S

$$
WYZ014>020-022>026-101>103-222300-
CENTRAL WYOMING

CITY           SKY/WX    TMP DP  RH WIND       PRES   REMARKS
BIG PINEY      PTSUNNY   27  21  78 CALM      29.85F
PINEDALE       CLOUDY    28  14  54 CALM      29.85S
DUBOIS         FAIR      30  12  47 W14       29.78F WCI  20
LANDER         FAIR      40  16  37 E6        29.78S
RIVERTON       FAIR      42   9  25 W12       29.79F
CASPER         PTSUNNY   41  18  39 SW12      29.81F
DOUGLAS        FAIR      46  15  28 W15G26    29.82R

$$
WYZ021-027>030-104>119-222300-
SOUTHERN WYOMING

CITY           SKY/WX    TMP DP  RH WIND       PRES   REMARKS
EVANSTON       LGT SNOW  29  24  82 N5        29.81F WCI  24
KEMMERER       LGT SNOW  32  21  64 NW3       29.83F
FORT BRIDGER   CLOUDY    31  29  94 NE5       29.85F WCI  26
ROCK SPRINGS   CLOUDY    30  23  75 NW7       29.84F WCI  23
DIXON            N/A     35  26  70 CALM      29.87F
RAWLINS        CLOUDY    30  25  81 SW10      29.84S WCI  21
SARATOGA       CLOUDY    32  27  80 W12       29.85S WCI  23
LARAMIE        FLURRIES  32  24  72 NE9       29.82F WCI  24
CHEYENNE       CLOUDY    43  18  36 NW17G25   29.79F
TORRINGTON     FAIR      53  13  20 W16       29.78F
PINE BLUFFS    CLOUDY    46  18  31 NW18G28   29.80S

$$




USA.gov is the U.S. government's official web portal to all federal, state and local government web resources and services.